{"data":{"norad_id":57434,"intl_designator":"2023-105E","name":"STARLINK-30102","alt_names":[],"object_type":"PAYLOAD","status":"ACTIVE","operator":null,"country":"US","launch_date":"2023-07-24","launch_site_code":"AFETR","launch_vehicle":null,"mission":null,"orbit_class":"UNKNOWN","rcs_meters":null,"size_class":null,"mass_kg":null,"dimensions":null,"purposes":["comms"],"wikipedia_slug":null,"has_3d_model":false,"image_url":null,"decayed_at":null,"tle_current":{"epoch":"2026-05-25T03:24:44.563680Z","epoch_age_seconds":65902,"freshness":"FRESH","line1":"1 57434U 23105E   26145.14218245 -.00000730  00000+0 -17017-4 0  9990","line2":"2 57434  43.0006 188.1389 0001291 270.0678  90.0026 15.27569774157226","mean_motion":15.27569774,"eccentricity":0.0001291,"inclination_deg":43.0006,"raan_deg":188.1389,"arg_perigee_deg":270.0678,"mean_anomaly_deg":90.0026,"bstar":-1.7017e-5,"rev_number":15722,"period_min":94.26737976291,"perigee_km":482.19393345515,"apogee_km":483.96549961136,"semimajor_km":6861.2167165333,"source":"CELESTRAK","updated_at":"2026-05-25T13:38:18.319713Z"}}}